[[{"header":{"parameterUnit":"m.s-1","parameterCategory":1,"la1":30.2991,"la2":30.254,"lo1":-89.0895,"lo2":-89.0444,"dy":0.0017,"dx":0.0017,"nx":28,"ny":28,"refTime":"2024-03-29T09:00:00:Z","depth":0,"parameterNumber":2,"parameterNumberName":"U-component_of_WINDS"},"data":[0,0,0,0,0,0,0,0,0,0,0,0,0,0,0,0,0,0,0,0,0,0,0,0,0,0,0,0,0,0,0,0,0,0,0,0,0,0,0,0,0,0,0,0,0,0,0,0,0,0,0,0,0,0,0,0,0,0,-1.8254,-1.8254,0,-1.8278,-1.8278,-1.8278,-1.8257,-1.8256,-1.8255,-1.8254,-1.8279,-1.8281,-1.8282,0,0,0,0,0,0,0,0,0,0,0,0,0,-1.8191,-1.8192,-1.8254,-1.8254,-1.8254,-1.8278,-1.8278,-1.8278,-1.8257,-1.8256,-1.8255,-1.8254,-1.8279,-1.8281,-1.8282,0,0,0,0,0,0,0,0,0,0,0,0,0,-1.8217,-1.8192,-1.8254,-1.8246,-1.8246,-1.8277,-1.8278,-1.8278,-1.8257,-1.8256,-1.8254,-1.8253,-1.8278,-1.828,-1.8283,-1.8323,0,0,-1.8289,-1.829,0,0,0,0,0,0,0,0,-1.8215,-1.8219,-1.8247,-1.8247,-1.8247,-1.8263,-1.8265,-1.8293,-1.8257,-1.8253,-1.8254,-1.8253,-1.8275,-1.8277,-1.8285,-1.8324,-1.8325,-1.829,-1.8291,-1.8292,-1.8293,0,0,0,0,0,0,0,-1.8213,-1.8218,-1.8263,-1.8248,-1.8247,-1.8242,-1.8245,-1.827,-1.8271,-1.8253,-1.8252,-1.8255,-1.8275,-1.8283,-1.8285,-1.8325,-1.829,-1.8292,-1.8293,-1.8294,-1.8399,-1.84,0,0,0,0,0,0,-1.8212,-1.8216,-1.8262,-1.8264,-1.8227,-1.8245,-1.8247,-1.8259,-1.8271,-1.8271,-1.8256,-1.8254,-1.828,-1.8283,-1.8286,-1.8334,-1.8292,-1.8294,-1.8295,-1.8397,-1.8399,-1.8401,0,0,0,0,0,0,-1.8211,-1.8216,-1.8261,-1.824,-1.8245,-1.8247,-1.8261,-1.826,-1.8268,-1.8273,-1.8273,-1.8264,-1.8279,-1.8283,-1.8314,-1.8334,-1.8295,-1.8297,-1.8396,-1.8398,-1.84,-1.8429,0,0,0,0,0,0,-1.8209,-1.8216,-1.8231,-1.824,-1.8246,-1.8288,-1.8262,-1.8262,-1.8272,-1.8269,-1.828,-1.8281,-1.8278,-1.8311,-1.8316,-1.8336,-1.8299,-1.8394,-1.8397,-1.8399,-1.8426,-1.8432,-1.8437,0,0,0,0,0,-1.8207,-1.8238,-1.8232,-1.8238,-1.8265,-1.829,-1.8293,-1.8289,-1.8274,-1.8289,-1.8292,-1.8281,-1.8331,-1.8314,-1.832,-1.8341,-1.8393,-1.8396,-1.8399,-1.8424,-1.8431,-1.8437,0,0,0,0,0,0,-1.8232,-1.8239,-1.8232,-1.8267,-1.8278,-1.8286,-1.8305,-1.8296,-1.8312,-1.8308,-1.8303,-1.8306,-1.8338,-1.8343,-1.8323,-1.8381,-1.836,-1.8364,-1.8376,-1.8383,-1.8388,-1.8386,-1.8301,0,0,0,0,0,-1.8241,-1.826,-1.8266,-1.8297,-1.8302,-1.8303,-1.8313,-1.8309,-1.832,-1.8325,-1.833,-1.8341,-1.8359,-1.8372,-1.8389,-1.8427,-1.8429,-1.8445,-1.845,-1.8455,-1.8458,-1.8479,-1.8486,-1.8412,-1.8411,-1.8411,0,0,-1.8261,-1.8268,-1.828,-1.8302,-1.8309,-1.833,-1.8307,-1.8329,-1.8344,-1.8328,-1.8357,-1.8362,-1.8374,-1.8409,-1.8424,-1.8414,-1.848,-1.8459,-1.8462,-1.8464,-1.8483,-1.849,-1.8497,-1.8414,-1.8413,-1.8413,0,0,-1.8307,-1.8314,-1.834,-1.8349,-1.836,-1.8361,-1.8367,-1.8377,-1.8379,-1.8408,-1.8397,-1.8415,-1.8447,-1.8456,-1.8465,-1.8516,-1.8506,-1.8521,-1.8549,-1.8569,-1.8575,-1.858,-1.8598,-1.8604,-1.8525,-1.8526,-1.8526,0,-1.833,-1.836,-1.8355,-1.8378,-1.8388,-1.8375,-1.8401,-1.841,-1.8427,-1.8434,-1.8422,-1.8462,-1.847,-1.8506,-1.8519,-1.8527,-1.8534,-1.852,-1.8574,-1.858,-1.8584,-1.8601,-1.8608,-1.8527,-1.8527,-1.8527,-1.8527,0,-1.8388,-1.8408,-1.8428,-1.8445,-1.8457,-1.8482,-1.8481,-1.8495,-1.849,-1.8492,-1.8522,-1.853,-1.8549,-1.8558,-1.8553,-1.8594,-1.8587,-1.8575,-1.8553,-1.8593,-1.8609,-1.8616,-1.853,-1.8529,-1.8529,-1.8528,0,0,-1.8449,-1.8463,-1.847,-1.8478,-1.849,-1.8506,-1.8531,-1.8549,-1.8561,-1.8574,-1.8594,-1.8622,-1.8611,-1.8621,-1.8617,-1.8635,-1.8675,-1.8621,-1.8621,-1.863,-1.872,-1.8729,-1.8737,-1.8669,-1.867,-1.8671,-1.8719,0,-1.8495,-1.8537,-1.8534,-1.8574,-1.8593,-1.8581,-1.8603,-1.8613,-1.8616,-1.8633,-1.8636,-1.8655,-1.8639,-1.8645,-1.8663,-1.8666,-1.8693,-1.8663,-1.8688,-1.8689,-1.8684,-1.8745,-1.8754,-1.8799,-1.8725,-1.8726,-1.8727,0,-1.8555,-1.8569,-1.8611,-1.8621,-1.8629,-1.8648,-1.8665,-1.8681,-1.8693,-1.8694,-1.8705,-1.8699,-1.8724,-1.8703,-1.8738,-1.8717,-1.8728,-1.8731,-1.8733,-1.8734,-1.871,-1.8748,-1.8813,-1.882,-1.8737,-1.8736,-1.8735,0,-1.8595,-1.8625,-1.8654,-1.8661,-1.8673,-1.8687,-1.8693,-1.8703,-1.8714,-1.8729,-1.8737,-1.8755,-1.8764,-1.8778,-1.8777,-1.8762,-1.8813,-1.8791,-1.8814,-1.8814,-1.8824,-1.8824,-1.8892,-1.8832,-1.8832,-1.8832,-1.8832,0,-1.8647,-1.8673,-1.8672,-1.869,-1.8719,-1.8715,-1.8744,-1.8748,-1.8758,-1.8776,-1.8768,-1.8785,-1.8783,-1.8801,-1.8801,-1.883,-1.8834,-1.8836,-1.8835,-1.8836,-1.8836,-1.8842,-1.8839,-1.8834,-1.8833,-1.8833,-1.8833,0,-1.8696,-1.8697,-1.8727,-1.8737,-1.874,-1.8761,-1.8769,-1.8786,-1.8788,-1.8812,-1.8817,-1.882,-1.8841,-1.8842,-1.8866,-1.8866,-1.8901,-1.8897,-1.8897,-1.8896,-1.8918,-1.8916,-1.8993,-1.9003,-1.8937,-1.8937,-1.8938,0,-1.8729,-1.8749,-1.876,-1.8772,-1.8778,-1.8797,-1.8809,-1.8806,-1.8819,-1.8834,-1.8849,-1.8869,-1.8885,-1.8919,-1.8924,-1.8942,-1.8939,-1.8964,-1.8941,-1.8942,-1.8939,-1.8937,-1.8939,-1.8969,-1.8969,-1.897,-1.897,0,-1.8787,-1.8786,-1.8803,-1.882,-1.8834,-1.8847,-1.8859,-1.887,-1.8869,-1.8883,-1.8904,-1.8917,-1.8941,-1.8961,-1.8979,-1.8986,-1.8978,-1.8978,-1.8984,-1.8985,-1.8984,-1.8984,-1.8908,-1.8976,-1.8975,-1.8975,-1.8974,-1.8974,-1.8829,-1.8846,-1.8856,-1.8875,-1.8884,-1.8896,-1.8912,-1.8917,-1.8934,-1.8953,-1.8951,-1.8975,-1.8987,-1.901,-1.9018,-1.9037,-1.9028,-1.9037,-1.9039,-1.9041,-1.9044,-1.8981,-1.904,-1.904,-1.904,-1.904,-1.904,0,-1.8886,-1.8893,-1.891,-1.8927,-1.8942,-1.8934,-1.8947,-1.896,-1.8981,-1.8992,-1.9008,-1.9032,-1.9052,-1.9059,-1.9078,-1.9091,-1.9088,-1.9096,-1.9095,-1.9097,-1.9051,-1.9043,-1.9099,-1.9099,-1.9099,-1.9099,-1.9099,-1.9099,-1.8918,-1.8946,-1.8947,-1.8979,-1.8985,-1.9008,-1.9016,-1.9027,-1.9036,-1.9064,-1.908,-1.9084,-1.9094,-1.9114,-1.9131,-1.9133,-1.914,-1.915,-1.915,-1.9106,-1.91,-1.9094,-1.9087,-1.9151,-1.9151,-1.9194,-1.9195,-1.9195]},{"header":{"parameterUnit":"m.s-1","parameterCategory":1,"la1":30.2991,"la2":30.254,"lo1":-89.0895,"lo2":-89.0444,"dy":0.0017,"dx":0.0017,"nx":28,"ny":28,"refTime":"2024-03-29T09:00:00:Z","depth":0,"parameterNumber":3,"parameterNumberName":"V-component_of_WINDS"},"data":[0,0,0,0,0,0,0,0,0,0,0,0,0,0,0,0,0,0,0,0,0,0,0,0,0,0,0,0,0,0,0,0,0,0,0,0,0,0,0,0,0,0,0,0,0,0,0,0,0,0,0,0,0,0,0,0,0,0,3.7583,3.7584,0,3.7646,3.7646,3.7647,3.7635,3.7633,3.7632,3.7631,3.7691,3.7694,3.7696,0,0,0,0,0,0,0,0,0,0,0,0,0,3.745,3.7452,3.7583,3.7584,3.7585,3.7646,3.7646,3.7647,3.7635,3.7633,3.7632,3.7631,3.769,3.7693,3.7697,0,0,0,0,0,0,0,0,0,0,0,0,0,3.7509,3.7453,3.7583,3.7586,3.7587,3.7645,3.7646,3.7648,3.7635,3.7633,3.7632,3.763,3.7689,3.7693,3.7697,3.7756,0,0,3.7709,3.7711,0,0,0,0,0,0,0,0,3.7506,3.7514,3.7585,3.7586,3.7587,3.7631,3.7621,3.7684,3.7635,3.7617,3.7631,3.7629,3.7672,3.7677,3.7693,3.7758,3.7761,3.771,3.7712,3.7714,3.7715,0,0,0,0,0,0,0,3.7502,3.7511,3.7608,3.7586,3.7587,3.7583,3.759,3.7633,3.7653,3.7618,3.7617,3.7625,3.7672,3.7689,3.7694,3.7762,3.771,3.7713,3.7715,3.7717,3.7878,3.788,0,0,0,0,0,0,3.7497,3.7508,3.7606,3.761,3.7542,3.7587,3.7594,3.7618,3.7653,3.7656,3.7627,3.7624,3.7683,3.7689,3.7696,3.7767,3.7714,3.7717,3.772,3.7876,3.7879,3.7881,0,0,0,0,0,0,3.7494,3.7506,3.7603,3.7559,3.7571,3.7591,3.7618,3.762,3.7637,3.7659,3.7662,3.764,3.7682,3.7691,3.7741,3.7769,3.7719,3.7723,3.7874,3.7877,3.788,3.7908,0,0,0,0,0,0,3.7491,3.7505,3.7528,3.7559,3.7573,3.7648,3.762,3.7623,3.7644,3.7642,3.7672,3.7676,3.7681,3.7735,3.7745,3.7773,3.7726,3.7872,3.7875,3.7879,3.7905,3.7912,3.7918,0,0,0,0,0,3.7486,3.7533,3.753,3.7541,3.7603,3.765,3.7658,3.7664,3.7647,3.767,3.7684,3.7675,3.7764,3.7741,3.7751,3.7781,3.787,3.7874,3.7879,3.7902,3.791,3.7917,0,0,0,0,0,0,3.7503,3.7537,3.7534,3.7593,3.7619,3.7648,3.7677,3.7673,3.7703,3.77,3.7705,3.7712,3.7764,3.7778,3.7751,3.7839,3.7814,3.7821,3.7829,3.7837,3.7843,3.7838,3.7729,0,0,0,0,0,3.7514,3.7551,3.7578,3.7627,3.7641,3.7657,3.7677,3.768,3.7707,3.7718,3.7735,3.7761,3.7794,3.7816,3.7849,3.7907,3.7913,3.7933,3.7939,3.7944,3.795,3.7981,3.799,3.7895,3.7895,3.7895,0,0,3.7536,3.7559,3.7582,3.7631,3.7652,3.7688,3.7666,3.7706,3.7733,3.7723,3.7772,3.7786,3.7815,3.787,3.7895,3.7883,3.7978,3.795,3.7954,3.7956,3.7987,3.7996,3.8004,3.7898,3.7897,3.7897,0,0,3.7596,3.7617,3.7661,3.7682,3.7714,3.7725,3.7735,3.7765,3.7775,3.7825,3.7818,3.785,3.7908,3.7929,3.7947,3.8015,3.8007,3.8025,3.8058,3.8089,3.8096,3.8103,3.8127,3.8135,3.8031,3.8031,3.8031,0,3.7619,3.7675,3.7683,3.7724,3.7746,3.774,3.7784,3.7804,3.7844,3.7859,3.7845,3.7918,3.7937,3.7996,3.8013,3.8028,3.804,3.8021,3.8095,3.8101,3.8108,3.813,3.8139,3.8033,3.8032,3.8032,3.8032,0,3.7702,3.7741,3.7772,3.7813,3.7838,3.788,3.7893,3.7917,3.7918,3.793,3.798,3.8003,3.804,3.8054,3.8055,3.8114,3.8106,3.8093,3.8068,3.8119,3.814,3.8149,3.8035,3.8035,3.8034,3.8034,0,0,3.7773,3.7819,3.783,3.7849,3.7884,3.7914,3.7955,3.7992,3.8013,3.8041,3.8075,3.8125,3.8114,3.8135,3.8137,3.8165,3.8217,3.8149,3.815,3.816,3.8283,3.8291,3.8301,3.8213,3.8214,3.8216,3.828,0,3.7836,3.791,3.7919,3.7984,3.802,3.8016,3.8052,3.8077,3.8089,3.812,3.8133,3.8168,3.8152,3.8164,3.8191,3.8205,3.8241,3.82,3.8243,3.8245,3.8236,3.8313,3.8322,3.8381,3.8289,3.829,3.8291,0,3.7918,3.795,3.802,3.8051,3.8066,3.8099,3.8134,3.8164,3.8192,3.8199,3.8222,3.8222,3.8263,3.8237,3.8294,3.8266,3.8284,3.8294,3.8296,3.83,3.827,3.8318,3.8401,3.8409,3.8304,3.8303,3.8302,0,3.7963,3.8023,3.8073,3.8089,3.8126,3.8149,3.8165,3.8192,3.8214,3.8244,3.8258,3.8292,3.8311,3.8337,3.8345,3.8326,3.8402,3.8376,3.8408,3.8407,3.8423,3.8422,3.851,3.8436,3.8436,3.8436,3.8435,0,3.8031,3.8074,3.8093,3.8124,3.8171,3.818,3.8227,3.8242,3.8266,3.8298,3.8296,3.8326,3.8336,3.8368,3.8375,3.8421,3.8429,3.8435,3.8436,3.8435,3.8434,3.8446,3.8442,3.8438,3.8437,3.8437,3.8437,0,3.8088,3.8103,3.8157,3.8189,3.8197,3.8231,3.8257,3.8286,3.8298,3.8339,3.8349,3.8368,3.8405,3.8416,3.8461,3.8465,3.8519,3.8516,3.851,3.851,3.854,3.8537,3.8638,3.8651,3.857,3.857,3.8571,0,3.8131,3.8164,3.8199,3.8221,3.8239,3.8275,3.8298,3.8308,3.8331,3.8366,3.8391,3.8428,3.8458,3.8518,3.8534,3.8568,3.8566,3.8599,3.8571,3.8569,3.8566,3.8564,3.8567,3.8604,3.8605,3.8606,3.8606,0,3.8204,3.821,3.8244,3.8281,3.8309,3.8337,3.8365,3.8383,3.8397,3.8424,3.8463,3.8486,3.8532,3.8569,3.8604,3.8619,3.8615,3.8616,3.8624,3.8623,3.8618,3.862,3.8523,3.8613,3.8612,3.8612,3.8611,3.8611,3.8255,3.8284,3.8314,3.8352,3.8374,3.84,3.8429,3.8445,3.8478,3.8517,3.8521,3.8563,3.859,3.8636,3.8653,3.8685,3.8676,3.8689,3.8692,3.8695,3.8697,3.8613,3.8692,3.8692,3.8691,3.8691,3.8691,0,3.8328,3.8347,3.8382,3.8422,3.8451,3.8446,3.8477,3.8502,3.8539,3.8565,3.8595,3.864,3.8675,3.8695,3.8731,3.8752,3.8751,3.8761,3.8759,3.8763,3.8704,3.8693,3.8762,3.8762,3.8762,3.8762,3.8762,3.8761,3.8369,3.8419,3.8428,3.8488,3.8507,3.8549,3.8566,3.859,3.8611,3.8662,3.8692,3.8705,3.8728,3.8766,3.8798,3.8803,3.8815,3.8826,3.883,3.8774,3.8767,3.876,3.8749,3.8829,3.8829,3.8886,3.8887,3.8887]}]]